SCP
0 0 0 0 0 0 0 0 0 0 0 0 0 0 0 0 0 0 0 0 0 0 0 0 0 0 0 0 0 0 0 0 0 0 0 0 0 0 0 0 0 0 0
0 0 0 0 0 0 0 0 0 0 0 0 0 0 0 0 0 0 0 0 0 0 0 0 0 0 0 0 0 0 0 0 0 0 0 0 0 0 0 0 0 0 0
0 0 0 0 0 0 0 0 0 0 0 0 0 0 0 0 0 0 0 0 0 0 0 0 0 0 0 0 0 0 0 0 0 0 0 0 0 0 0 0 0 0 0
0 0 0 0 0 0 0 0 0 0 0 0 0 0 0 0 0 0 0 0 0 0 0 0 0 0 0 0 0 0 0 0 0 0 0 0 0 0 0 0 0 0 0
0 0 0 0 0 0 0 0 0 0 0 0 0 0 0 0 0 0 0 0 0 0 0 0 0 0 0 0 0 0 0 0 0 0 0 0 0 0 0 0 0 0 0
0 0 0 0 0 0 0 0 0 0 0 0 0 0 0 0 0 0 0 0 0 0 0 0 0 0 0 0 0 0 0 0 0 0 0 0 0 0 0 0 0 0 0
0 0 0 0 0 0 0 0 0 0 0 0 0 0 0 0 0 0 0 0 0 0 0 0 0 0 0 0 0 0 0 0 0 0 0 0 0 0 0 0 0 0 0
0 0 0 0 0 0 0 0 0 0 0 0 0 0 0 0 0 0 0 0 0 0 0 0 0 0 0 0 0 0 0 0 0 0 0 0 0 0 0 0 0 0 0
0 0 0 0 0 0 0 0 0 0 0 0 0 0 0 0 0 0 0 0 0 0 0 0 0 0 0 0 0 0 0 0 0 0 0 0 0 0 0 0 0 0 0
0 0 0 0 0 0 0 0 0 0 0 0 0 0 0 0 0 0 0 0 0 0 0 0 0 0 0 0 0 0 0 0 0 0 0 0 0 0 0 0 0 0 0
0 0 0 0 0 0 0 0 0 0 0 0 0 0 0 0 0 0 0 0 0 0 0 0 0 0 0 0 0 0 0 0 0 0 0 0 0 0 0 0 0 0 0
0 0 0 0 0 0 0 0 0 0 0 0 0 0 0 0 0 0 0 0 0 0 0 0 0 0 0 0 0 0 0 0 0 0 0 0 0 0 0 0 0 0 0
0 0 0 0 0 0 0 0 0 0 0 0 0 0 0 0 0 0 0 0 0 0 0 0 0 0 0 0 0 0 0 0 0 0 0 0 0 0 0 0 0 0 0
0 0 0 0 0 0 0 0 0 0 0 0 0 0 0 0 0 0 0 0 0 0 0 0 0 0 0 0 0 0 0 0 0 0 0 0 0 0 0 0 0 0 0
0 0 0 0 0 0 0 0 0 0 0 0 0 0 0 0 0 0 0 0 0 0 0 0 0 0 0 0 0 0 0 0 0 0 0 0 0 0 0 0 0 0 0
0 0 0 0 0 0 0 0 0 0 0 0 0 0 0 0 0 0 0 0 0 0 0 0 0 0 0 0 0 0 0 0 0 0 0 0 0 0 0 0 0 0 0
0 0 0 0 0 0 0 0 0 0 0 0 0 0 0 0 0 0 0 0 0 0 0 0 0 0 0 0 0 0 0 0 0 0 0 0 0 0 0 0 0 0 0
0 0 0 0 0 0 0 0 0 0 0 0 0 0 0 0 0 0 0 0 0 0 0 0 0 0 0 0 0 0 0 0 0 0 0 0 0 0 0 0 0 0 0
0 0 0 0 0 0 0 0 0 0 0 0 0 0 0 0 0 0 0 0 0 0 0 0 0 0 0 0 0 0 0 0 0 0 0 0 0 0 0 0 0 0 0
0 0 0 0 0 0 0 0 0 0 0 0 0 0 0 0 0 0 0 0 0 0 0 0 0 0 0 0 0 0 0 0 0 0 0 0 0 0 0 0 0 0 0
0 0 0 0 0 0 0 0 0 0 0 0 0 0 0 0 0 0 0 0 0 0 0 0 0 0 0 0 0 0 0 0 0 0 0 0 0 0 0 0 0 0 0
0 0 0 0 0 0 0 0 0 0 0 0 0 0 0 0 0 0 0 0 0 0 0 0 0 0 0 0 0 0 0 0 0 0 0 0 0 0 0 0 0 0 0
0 0 0 0 0 0 0 0 0 0 0 0 0 0 0 0 0 0 0 0 0 0 0 0 0 0 0 0 0 0 0 0 0 0 0 0 0 0 0 0 0 0 0
0 0 0 0 0 0 0 0 0 0 0 0 0 0 0 0 0 0 0 0 0 0 0 0 0 0 0 0 0 0 0 0 0 0 0 0 0 0 0 0 0 0 0
0 0 0 0 0 0 0 0 0 0 0 0 0 0 0 0 0 0 0 0 0 0 0 0 0 0 0 0 0 0 0 0 0 0 0 0 0 0 0 0 0 0 0
0 0 0 0 0 0 0 0 0 0 0 0 0 0 0 0 0 0 0 0 0 0 0 0 0 0 0 0 0 0 0 0 0 0 0 0 0 0 0 0 0 0 0
Wind_Speed
1 1 1 1 1 1 1 2 2 2 3 3 4 4 4 4 4 3 3 6 8 9 10 10 11 10 10 10 10 10 10 11 10 10 10 10 9 9 9 9 9 9 8
1 1 1 1 1 1 1 2 2 2 3 3 4 4 4 4 3 3 3 4 6 8 9 11 11 11 11 11 10 10 10 11 12 12 11 11 11 11 11 10 10 10 10
1 1 1 1 2 2 2 2 2 2 2 3 3 4 3 3 3 3 3 3 3 6 8 10 10 10 11 11 10 11 10 10 11 11 12 12 12 12 12 11 11 11 11
2 1 1 1 2 2 1 2 1 2 2 2 3 3 3 3 3 3 3 3 2 3 4 7 8 8 9 10 10 11 10 9 10 10 11 13 13 13 13 13 13 12 12
3 2 1 1 2 1 1 2 2 1 2 3 3 3 3 3 3 3 3 3 2 2 2 4 6 7 7 8 10 11 11 10 9 10 11 12 12 14 14 14 14 13 13
3 2 2 2 2 1 1 2 2 2 2 3 4 3 3 3 2 2 3 2 2 2 2 2 2 4 5 7 8 9 11 11 10 10 11 11 12 13 14 15 14 14 14
3 2 2 3 2 1 2 2 2 2 2 2 2 3 3 3 2 2 2 1 2 2 1 1 1 1 2 5 6 8 9 10 10 10 10 11 12 13 13 14 15 15 15
3 3 3 3 3 2 2 2 1 1 2 1 1 1 3 3 2 2 1 1 2 1 1 1 1 1 2 1 3 5 7 9 10 11 10 10 11 12 13 13 14 14 14
2 2 3 3 3 2 2 3 2 1 2 2 1 1 1 3 3 2 2 1 2 1 1 1 1 1 1 1 2 4 6 7 9 11 11 11 11 12 12 12 13 13 13
2 2 2 2 2 2 3 3 2 2 2 2 2 1 2 2 2 4 3 2 2 2 2 1 1 1 1 1 2 5 6 7 8 9 10 11 11 11 11 12 12 12 12
2 2 2 2 2 2 3 3 3 2 1 2 2 1 2 1 2 3 4 3 2 2 1 1 1 1 1 1 2 4 7 8 9 10 11 11 11 11 10 11 11 11 11
2 2 2 2 2 2 3 3 3 2 2 2 2 2 2 2 2 2 4 4 4 2 2 1 1 1 1 2 3 6 7 8 9 10 11 11 11 11 11 11 11 11 11
2 3 2 2 2 3 3 2 2 2 2 2 2 2 2 2 2 2 2 3 4 3 1 1 1 1 1 2 3 6 6 8 9 10 10 11 10 10 11 11 10 10 11
3 3 2 3 3 3 3 2 2 2 2 2 3 2 2 2 2 2 2 2 3 3 2 2 1 1 1 2 3 5 4 8 8 9 9 10 10 10 10 10 10 10 10
2 2 2 3 3 3 2 2 2 2 2 2 2 2 2 2 1 2 2 2 3 4 4 2 1 1 2 2 4 3 3 7 8 9 9 9 9 9 9 9 9 9 10
3 3 3 3 3 3 2 2 2 2 2 2 2 1 2 1 1 1 1 1 2 3 4 2 2 2 3 3 5 3 4 7 8 9 9 8 8 8 9 8 9 9 10
3 3 3 3 3 3 3 2 2 2 2 2 2 2 2 2 1 1 1 1 2 2 4 3 2 2 2 3 4 3 3 3 4 8 8 8 8 8 8 8 9 9 9
3 3 3 3 4 3 3 3 3 2 2 3 3 2 3 2 2 2 1 2 2 2 3 4 3 2 2 3 3 3 4 3 3 7 8 8 8 8 9 9 9 9 9
4 4 3 4 4 4 3 3 3 3 3 3 3 3 3 2 2 2 2 2 2 2 2 3 3 2 2 2 3 3 4 3 4 5 7 7 8 9 9 9 9 9 9
4 4 4 4 4 4 4 4 3 3 3 3 3 3 3 3 3 3 2 3 2 2 2 2 3 2 2 2 2 3 4 3 4 4 5 6 8 9 9 10 9 9 9
5 5 4 4 4 4 4 4 3 3 4 4 3 3 4 4 4 4 3 3 2 2 2 2 3 2 2 2 2 2 4 4 4 2 3 3 4 4 5 8 9 9 9
5 5 5 5 5 5 6 7 5 4 4 4 4 4 4 4 4 5 5 4 4 3 3 3 3 3 3 3 3 3 3 4 4 2 3 5 3 4 4 4 8 10 10
5 5 5 5 6 7 9 9 8 4 4 4 4 4 3 3 4 3 3 3 3 4 4 3 4 4 4 3 3 3 3 3 4 4 3 5 3 4 4 6 11 10 10
5 5 5 5 5 7 10 9 8 4 4 4 4 4 4 4 3 3 2 2 2 2 2 2 2 3 3 2 3 3 3 4 4 3 2 4 3 4 5 5 9 10 10
5 5 4 5 6 7 9 9 7 3 3 4 4 4 4 4 6 5 3 2 2 2 2 2 2 2 3 3 2 1 2 2 4 3 1 2 3 4 4 4 5 8 10
5 5 5 5 6 6 8 9 8 3 4 4 3 4 6 6 6 5 3 3 3 3 1 1 1 2 2 3 3 1 1 2 3 3 1 1 2 3 4 3 3 4 5
Wind_Direction
357 345 324 315 298 293 283 283 282 277 273 273 269 268 268 258 256 253 258 250 248 247 249 248 246 245 245 245 246 246 244 243 242 242 243 242 243 248 250 253 254 255 257
360 347 341 331 315 304 288 277 279 276 271 270 273 272 263 257 250 249 254 256 253 253 255 255 253 251 250 250 250 248 246 248 248 247 247 246 245 247 250 251 253 255 258
5 6 347 326 314 314 311 305 303 301 300 298 288 281 273 265 264 255 256 255 256 255 258 263 263 258 256 254 253 253 250 249 252 253 251 250 248 247 248 250 251 253 256
16 20 1 324 315 323 328 321 323 316 311 304 292 286 281 272 265 259 255 256 251 256 255 261 267 265 262 260 261 261 258 254 253 256 258 256 251 249 249 250 251 252 254
3 4 349 322 324 331 332 322 330 310 301 299 288 283 281 272 265 267 258 257 257 256 252 257 258 265 267 266 268 270 269 266 262 260 260 263 258 253 251 251 250 250 251
358 356 345 335 338 337 327 317 307 306 288 288 294 296 285 277 269 262 257 260 265 266 261 257 254 264 265 271 274 277 278 276 275 271 267 266 264 261 258 254 253 252 254
0 360 351 336 336 328 311 312 306 301 301 305 312 312 300 286 283 268 258 260 281 277 271 265 270 282 281 276 279 287 287 286 283 281 278 274 269 266 264 260 258 256 256
355 355 354 335 334 329 323 318 310 296 289 309 299 314 317 319 306 288 277 263 282 293 289 284 282 285 287 285 306 305 299 293 288 284 282 281 277 272 270 269 268 263 259
354 349 343 336 331 329 314 303 290 268 278 287 263 218 259 273 307 300 287 289 297 298 291 283 286 290 302 304 300 310 310 303 292 287 286 285 282 279 277 276 274 272 269
342 346 342 336 328 324 317 308 305 275 253 268 280 259 241 230 266 299 305 306 307 296 291 307 311 325 327 320 325 334 329 315 305 301 295 293 291 287 284 284 285 283 277
340 346 341 336 327 318 309 308 309 294 261 247 250 258 259 257 228 247 285 303 304 289 300 300 305 313 315 317 311 332 330 320 311 310 309 306 299 297 295 294 294 293 293
324 334 335 328 316 309 301 299 298 294 282 267 256 239 231 233 234 237 262 285 289 287 292 288 299 296 299 313 319 334 325 319 315 312 311 314 314 310 308 306 303 301 298
300 309 321 318 309 298 296 298 299 294 290 274 259 250 246 244 236 233 253 275 284 289 291 278 268 282 305 311 310 329 323 321 318 315 313 317 324 321 313 306 304 304 304
267 283 296 297 295 297 302 302 293 290 290 276 274 258 249 255 244 231 233 254 282 283 272 262 286 281 293 294 315 328 314 326 325 323 324 326 322 320 320 315 304 301 302
268 274 285 291 292 295 295 295 290 292 292 277 270 264 256 261 253 242 235 230 241 268 275 257 275 297 294 295 320 311 307 320 329 328 326 326 329 328 326 322 321 316 310
262 268 276 280 286 290 290 286 285 287 292 287 275 274 272 268 268 258 243 242 239 247 269 271 268 288 306 322 327 320 312 330 328 326 326 326 325 324 322 324 323 323 317
253 259 265 272 276 278 280 280 281 289 288 295 297 283 276 269 263 264 258 247 243 232 256 277 276 289 293 308 318 318 315 317 316 325 326 325 323 323 322 321 322 322 323
248 251 259 266 269 271 267 264 271 277 270 275 283 284 281 284 273 265 253 252 254 246 245 270 283 284 276 291 305 312 321 325 308 318 325 325 323 323 324 321 320 320 319
251 254 254 258 261 262 261 260 258 263 262 259 260 262 268 270 271 268 259 255 259 269 254 259 278 287 294 305 312 311 310 309 311 317 324 325 325 323 322 321 319 316 315
245 249 249 250 253 255 255 255 257 262 264 263 261 258 260 257 260 264 261 253 250 259 264 264 273 283 293 306 314 312 313 321 312 318 322 320 318 321 322 320 315 315 314
243 244 246 251 252 251 248 248 250 256 258 263 264 262 258 259 262 258 258 250 240 246 255 262 270 280 289 306 302 298 301 310 301 306 311 306 307 306 313 313 311 312 313
244 240 240 242 247 253 256 250 246 248 252 254 261 264 262 259 265 269 270 263 244 238 240 245 255 262 273 274 279 291 301 315 305 311 315 302 300 299 302 296 307 314 315
241 242 241 237 244 251 253 253 249 243 243 246 248 254 263 260 261 258 269 279 281 272 253 238 245 251 258 261 270 282 283 282 277 291 307 293 301 296 299 305 310 314 316
239 240 242 240 244 253 253 252 249 242 244 249 246 242 247 255 250 239 236 255 272 282 274 259 235 247 253 257 248 265 272 280 276 278 280 281 298 293 302 302 307 311 314
244 241 240 236 241 254 252 249 244 229 238 248 247 242 242 247 248 242 220 229 261 279 287 266 254 274 298 312 313 304 304 301 295 292 299 280 293 303 297 289 300 312 317
244 245 246 239 238 246 249 248 241 224 236 249 250 247 244 246 248 240 219 212 238 260 278 316 339 341 344 337 339 316 257 269 285 289 303 315 298 322 310 288 289 300 308